This demonstration page uses our WeatherBlox Daily Observations layout. Learn more.

Left ArrowRight Arrow

Hourly Observations for February 17, 2022

Temp ( °F °C ) Dew Point ( °F °C ) Humidity (%) Winds ( mph kmh ) Pressure ( in mb ) Visibility ( mi km ) Precip ( " mm )
12:53 am 00:53 Clear 57 13.9 27 -2.8 32 32 NNW 14 22 30.27 1025 10 16 0.00 0.00
1:53 am 01:53 Clear 55 12.8 27 -2.8 34 34 NW 12 19 30.27 1025 10 16 0.00 0.00
2:53 am 02:53 Clear 56 13.3 26 -3.3 32 32 NNW 17 28 30.27 1025 10 16 0.00 0.00
3:53 am 03:53 Clear 56 13.3 26 -3.3 32 32 NNW 14 22 30.27 1025 10 16 0.00 0.00
4:53 am 04:53 Clear 56 13.3 25 -3.9 30 30 NNW 13 20 30.28 1026 10 16 0.00 0.00
5:53 am 05:53 Clear 55 12.8 24 -4.4 30 30 N 12 19 30.29 1026 10 16 0.00 0.00
6:53 am 06:53 Clear 55 12.8 24 -4.4 30 30 NNW 9 15 30.31 1026 10 16 0.00 0.00
7:53 am 07:53 Sunny 56 13.3 24 -4.4 29 29 N 16 26 30.31 1027 10 16 0.00 0.00
8:53 am 08:53 Sunny 58 14.4 24 -4.4 27 27 N 13 20 30.34 1027 10 16 0.00 0.00
9:53 am 09:53 Sunny 61 16.1 24 -4.4 24 24 N 15 24 30.33 1027 10 16 0.00 0.00
10:53 am 10:53 Sunny 64 17.8 24 -4.4 22 22 N 13 20 30.32 1027 10 16 0.00 0.00
11:53 am 11:53 Sunny 67 19.4 24 -4.4 20 20 NE 14 22 30.31 1026 10 16 0.00 0.00
12:53 pm 12:53 Sunny 70 21.1 22 -5.6 16 16 NNE 14 22 30.27 1025 10 16 0.00 0.00
1:53 pm 13:53 Sunny 71 21.7 21 -6.1 15 15 NNE 5 7 30.25 1024 10 16 0.00 0.00
2:53 pm 14:53 Sunny 72 22.2 20 -6.7 14 14 NNW 5 7 30.22 1024 10 16 0.00 0.00
3:53 pm 15:53 Sunny 73 22.8 21 -6.1 14 14 Calm 30.21 1023 10 16 0.00 0.00
4:53 pm 16:53 Sunny 71 21.7 23 -5 16 16 Calm 30.21 1023 10 16 0.00 0.00
5:53 pm 17:53 Clear 62 16.7 31 -0.6 31 31 SE 3 6 30.22 1023 10 16 0.00 0.00
6:53 pm 18:53 Clear 58 14.4 28 -2.2 32 32 Calm 30.24 1024 10 16 0.00 0.00
7:53 pm 19:53 Clear 56 13.3 28 -2.2 34 34 Calm 30.27 1025 10 16 0.00 0.00
8:53 pm 20:53 Clear 51 10.6 30 -1.1 44 44 Calm 30.28 1025 10 16 0.00 0.00
9:53 pm 21:53 Clear 51 10.6 29 -1.7 43 43 NE 3 6 30.29 1026 10 16 0.00 0.00
10:53 pm 22:53 Clear 45 7.2 30 -1.1 56 56 Calm 30.31 1026 10 16 0.00 0.00
11:53 pm 23:53 Clear 43 6.1 28 -2.2 56 56 Calm 30.31 1027 10 16 0.00 0.00

Powered by AerisWeather